Theta_e
306 306 306 306 306 306 306 306 306 307 307 308 308 308 309 308 307 310 309 310 309 306 307 308 308 305 305 305 301 304 303 306 307 301 300 299 299 301 300 301 300 298 297 297 297 293 290 305 304 297 301 303 303 302
305 305 305 305 305 305 305 305 306 307 307 309 309 307 307 308 307 311 307 312 312 309 308 309 312 313 311 309 307 305 305 304 309 305 304 304 301 302 300 296 305 299 303 300 300 299 303 304 304 304 304 303 301 301
304 304 305 305 305 305 305 305 306 307 307 308 309 307 306 307 307 310 309 311 310 308 308 306 305 310 312 312 314 305 305 308 310 310 307 304 299 303 299 299 301 303 304 302 299 301 302 302 303 303 304 301 301 301
303 304 305 304 304 304 305 305 306 306 306 308 309 307 306 306 308 310 310 311 309 306 301 301 310 308 311 312 311 311 311 310 311 310 306 304 301 303 301 301 301 303 303 300 300 302 302 302 303 302 301 301 300 300
304 305 304 303 304 304 304 305 305 305 306 307 310 308 307 307 309 313 311 310 308 306 300 301 307 307 309 312 310 310 311 309 308 304 304 303 304 303 301 301 300 304 302 302 300 304 304 303 303 303 301 300 299 299
304 304 303 303 304 304 305 305 305 306 306 308 309 308 307 309 310 310 306 307 305 309 304 296 304 306 307 309 309 308 309 308 308 306 305 306 304 303 300 298 301 303 304 305 304 305 304 304 303 303 301 300 300 300
304 304 304 304 304 304 305 305 306 306 306 308 309 309 309 310 310 307 304 306 306 308 304 298 297 304 306 306 307 307 307 308 307 305 304 305 303 302 300 297 302 304 305 305 306 305 301 302 301 302 301 301 301 302
303 304 304 304 304 304 304 305 306 306 306 308 308 309 310 309 307 305 308 309 307 304 305 297 297 302 306 304 303 305 305 305 305 304 303 303 301 300 297 301 302 305 304 304 303 304 306 304 302 301 301 301 299 299
302 303 304 304 304 304 305 306 308 308 308 308 309 309 310 307 306 307 310 307 306 306 300 298 295 296 305 303 304 304 304 300 302 302 302 301 299 297 302 303 304 304 305 303 303 303 303 302 301 300 300 299 299 299
301 302 303 304 304 304 306 307 309 309 310 310 308 303 298 302 307 309 305 303 300 299 301 297 300 299 302 301 301 302 301 300 297 300 302 299 299 303 303 304 306 307 306 305 302 300 301 300 300 299 299 299 300 300
301 302 303 303 304 305 306 306 308 309 308 303 301 300 305 305 304 300 297 297 297 295 298 299 299 300 304 300 300 301 299 298 294 297 298 297 298 301 304 304 306 308 306 306 304 304 304 304 301 299 299 299 301 301
301 303 303 303 304 304 305 306 306 306 302 301 303 305 306 300 296 293 292 293 293 292 296 296 298 301 303 305 302 300 298 297 292 300 298 295 301 302 303 303 305 306 305 302 303 302 302 302 301 300 300 301 301 302
299 300 301 301 302 303 304 305 305 306 306 304 301 298 297 294 288 287 284 287 290 295 296 297 297 302 302 302 298 300 295 294 299 296 295 300 302 302 302 303 303 305 304 302 301 302 302 301 301 301 301 302 302 302
298 299 299 300 301 303 302 303 304 304 303 296 294 287 290 288 290 292 292 293 297 297 297 299 299 298 301 298 297 295 296 297 291 290 292 300 303 302 302 303 303 302 302 301 301 301 301 300 300 301 302 303 302 303
298 299 300 300 302 303 302 302 303 302 300 292 293 287 289 294 295 296 297 296 300 301 300 298 297 298 296 296 297 295 292 290 292 293 299 303 303 303 302 302 302 302 302 301 301 300 300 300 300 301 302 303 303 305
300 299 300 302 302 302 301 302 302 301 299 294 291 290 295 294 295 297 297 297 300 300 300 299 294 294 294 296 293 291 290 289 295 300 302 304 303 304 303 303 303 303 303 302 301 301 301 300 301 302 303 303 304 305
299 297 300 302 302 302 302 301 300 297 295 293 292 297 295 295 295 298 296 297 300 300 296 296 291 290 295 293 291 293 293 297 300 303 305 304 304 304 304 304 303 303 302 302 301 301 301 302 302 302 302 304 305 307
297 298 300 302 302 302 300 300 295 294 290 293 291 294 295 298 297 297 297 298 300 298 297 295 296 292 292 290 292 296 299 301 302 303 304 305 305 306 305 304 304 304 303 302 302 301 301 301 301 302 304 305 306 305
297 299 300 301 301 298 295 296 296 290 292 295 295 295 296 296 297 297 297 296 297 298 297 295 293 292 293 296 297 298 299 301 302 302 303 306 307 306 305 305 305 304 303 302 301 301 301 302 303 303 305 305 305 302
300 300 300 301 300 294 293 295 298 292 290 292 296 294 295 295 295 295 295 295 293 293 292 291 293 295 298 299 300 301 301 302 303 304 305 306 306 306 305 305 304 303 302 302 302 297 301 301 302 304 305 305 303 305
299 300 300 299 297 295 293 294 292 294 293 292 293 294 294 296 295 295 295 296 294 291 290 293 294 299 299 301 302 301 302 302 303 304 305 306 306 306 305 303 302 301 302 301 301 300 298 302 302 304 304 305 305 308
299 300 298 298 294 295 294 296 294 295 292 291 291 293 294 293 293 294 296 294 293 294 295 295 297 297 298 300 301 302 303 303 303 304 298 300 305 304 304 304 300 300 302 302 302 301 302 302 303 302 304 304 301 308
299 298 296 296 291 288 289 293 289 291 288 289 290 289 289 290 292 295 292 293 294 295 295 296 297 299 300 302 302 302 302 302 303 305 306 306 307 308 306 303 304 301 301 303 304 304 303 297 298 301 304 303 305 306
298 294 291 289 288 286 291 289 290 289 290 288 288 287 289 292 293 292 289 291 294 297 297 296 299 300 301 301 302 302 302 304 303 303 306 306 305 306 307 305 304 306 307 307 305 304 304 302 298 302 304 303 304 305
286 286 288 284 287 287 286 287 287 287 286 288 288 288 290 292 289 288 289 292 295 297 298 298 300 300 300 300 302 302 303 302 301 302 307 307 307 308 307 305 305 307 309 307 305 304 303 303 302 303 303 303 304 305
282 286 286 287 287 286 287 285 286 286 288 287 288 290 291 290 286 286 291 295 297 298 299 299 299 299 299 301 301 300 299 302 304 302 305 307 307 307 306 302 302 305 309 310 307 305 303 302 302 302 303 301 292 303
281 285 288 291 289 290 289 290 291 290 287 287 290 289 289 284 285 291 296 299 299 300 300 301 299 300 300 301 303 304 301 302 301 300 302 304 306 307 306 303 303 308 309 309 309 307 305 302 302 302 303 304 304 304
288 288 286 289 289 289 287 288 288 288 289 291 292 287 287 287 288 294 298 300 301 300 301 301 302 303 303 303 304 304 301 302 301 302 304 304 304 305 305 306 307 293 309 310 309 308 306 304 303 303 303 304 304 306
286 289 289 286 288 289 289 289 290 293 295 294 291 290 290 293 296 298 299 300 300 299 299 299 299 300 300 301 302 303 302 301 296 294 297 298 301 302 305 306 306 306 309 307 290 299 306 304 304 305 305 305 305 306
287 290 287 287 287 287 292 294 294 295 294 293 293 293 294 295 297 299 299 298 298 299 300 300 300 300 299 299 298 297 298 299 300 298 296 297 299 303 305 305 306 307 308 308 307 302 287 299 295 304 303 304 304 304
290 289 287 288 288 293 294 294 293 293 293 292 290 288 287 293 296 297 297 299 300 298 296 294 294 298 298 297 297 296 294 297 298 298 299 300 301 303 304 305 306 308 308 307 305 305 304 303 304 303 303 303 303 301
289 288 288 287 290 293 294 293 292 291 291 290 288 290 290 290 289 295 299 299 298 297 293 293 294 295 297 299 299 298 290 297 296 296 296 297 300 302 302 303 304 306 307 306 306 306 305 305 304 304 304 303 303 303
290 291 291 290 290 290 292 292 290 290 290 289 290 291 291 290 288 296 300 300 298 298 298 297 297 297 296 295 296 297 291 298 295 287 287 287 286 290 298 301 302 303 304 306 306 306 304 304 303 303 304 304 303 303
Wind_Speed
5 4 4 1 3 4 6 7 10 11 11 10 8 9 8 6 6 4 2 2 2 2 2 2 1 1 1 1 2 3 2 1 1 1 1 2 1 2 1 1 1 2 2 1 2 3 1 4 1 3 4 3 4 5
6 3 1 3 4 5 4 7 10 11 12 13 6 10 9 6 7 4 1 1 0 3 3 2 5 6 4 2 2 2 2 1 2 1 0 1 2 2 1 0 1 1 2 3 3 3 2 2 2 3 1 5 4 5
3 3 4 6 3 4 6 8 9 10 12 14 9 10 9 7 8 3 1 3 1 1 3 3 2 2 0 6 2 1 2 1 3 1 0 1 3 1 1 1 2 2 2 2 2 3 1 4 5 5 7 8 7 6
3 4 4 2 4 5 6 8 9 9 12 14 11 9 6 5 8 3 1 1 0 1 2 2 3 1 3 4 3 1 5 4 4 1 1 1 2 2 1 2 2 2 4 2 3 3 3 4 4 8 9 8 8 6
5 7 4 2 2 6 8 9 10 9 12 14 11 6 3 8 4 3 1 1 1 3 1 4 7 1 3 3 6 6 5 4 1 2 2 1 0 2 1 2 3 4 2 2 2 2 2 3 10 8 8 7 5 5
4 5 4 2 3 6 8 9 11 9 12 13 9 2 5 4 4 2 3 2 1 2 2 3 3 2 3 4 6 5 3 2 1 1 0 1 1 3 2 1 0 3 2 1 3 6 5 11 10 7 8 6 5 5
2 2 4 2 5 8 10 12 12 12 11 12 2 1 2 5 2 1 2 2 2 2 2 3 3 1 3 2 2 2 2 1 1 1 2 1 2 2 1 3 4 4 4 6 9 11 7 7 6 8 9 8 7 6
7 6 5 1 6 9 11 14 14 12 11 7 3 2 2 6 3 2 1 0 2 2 0 2 2 2 1 2 3 1 2 1 1 1 2 1 3 1 3 3 4 6 10 9 3 2 5 11 12 10 8 7 6 5
5 5 5 5 6 10 13 16 14 5 6 5 3 8 3 1 2 2 3 3 0 2 1 2 2 2 1 2 1 2 1 3 1 2 1 2 2 4 3 5 9 11 8 10 8 9 10 11 10 8 7 5 6 5
3 4 5 6 7 10 12 14 4 5 6 10 2 2 2 2 4 4 2 2 1 2 1 3 1 2 2 2 3 2 1 1 3 2 1 3 3 3 3 3 3 11 10 13 12 7 9 9 9 7 5 5 5 5
3 4 4 4 7 10 8 8 6 10 5 1 2 1 1 2 1 2 1 3 1 3 4 2 6 3 3 3 3 1 2 1 3 3 2 2 2 0 5 3 5 10 11 6 3 5 6 9 10 8 7 6 6 5
4 6 5 5 5 7 9 7 3 1 1 1 1 2 0 2 3 2 2 1 4 4 3 3 4 4 2 2 2 3 2 2 2 2 2 2 1 3 3 4 9 10 9 7 7 10 9 9 8 8 8 7 6 4
4 3 4 4 5 5 7 10 7 6 2 1 1 3 1 1 3 6 7 5 4 5 5 4 4 3 3 3 2 2 3 2 2 3 2 1 1 2 4 7 10 9 10 11 10 10 10 10 8 8 8 6 5 4
4 4 5 6 6 2 6 8 7 3 3 1 3 4 4 4 6 6 8 3 3 3 6 6 3 2 2 2 1 3 2 2 3 3 2 2 0 6 7 7 11 11 10 10 10 9 9 8 7 7 6 6 5 3
6 6 6 4 5 3 4 4 3 1 3 2 2 4 6 5 4 4 5 3 2 2 5 5 3 1 1 3 0 3 3 3 3 2 1 2 4 8 9 9 10 10 9 8 8 8 8 8 8 7 5 4 3 0
7 3 3 6 2 1 2 0 1 1 2 2 2 4 3 3 4 3 4 3 1 3 2 3 4 2 1 1 3 3 4 3 2 0 2 1 8 9 9 9 8 8 8 7 6 7 7 7 7 7 5 4 2 1
3 1 7 5 3 1 1 1 0 2 2 3 3 4 6 6 4 1 1 1 0 2 2 3 4 1 1 2 3 2 2 1 2 2 3 2 10 10 9 9 8 8 8 7 7 7 7 6 6 6 6 4 2 1
2 2 6 6 2 2 1 1 1 2 4 4 3 2 3 2 1 1 1 2 2 3 3 1 3 3 2 4 2 2 0 2 1 3 2 2 7 9 9 10 9 8 8 7 6 7 7 7 7 5 5 3 2 3
2 3 5 4 2 1 0 3 2 2 3 3 2 1 1 2 1 2 2 3 2 2 5 2 3 2 2 1 2 2 1 2 2 3 2 1 6 9 9 8 8 8 8 7 7 5 5 6 5 4 3 2 2 1
6 5 5 2 1 0 3 3 3 3 2 1 2 4 1 2 2 2 1 3 2 2 4 3 1 1 2 2 1 1 1 1 2 2 2 2 3 7 9 9 7 8 7 6 5 4 5 5 4 4 3 3 3 3
1 2 3 4 2 2 2 1 1 1 2 1 3 1 2 3 3 1 2 2 2 2 2 2 1 2 2 2 1 0 0 1 3 3 3 2 4 4 5 4 6 6 6 5 5 5 5 5 5 5 4 4 2 2
0 2 1 2 2 3 2 1 0 1 1 2 2 2 1 0 1 2 1 2 1 1 0 1 1 2 3 3 2 2 3 4 4 2 3 3 4 5 7 8 7 6 5 5 5 5 5 5 5 5 5 4 3 2
3 1 1 2 1 1 1 1 2 1 3 1 3 3 2 1 1 1 1 1 1 0 1 1 1 1 2 4 3 3 2 4 4 4 3 4 4 5 6 7 6 7 6 5 4 4 4 5 6 5 5 5 5 3
2 1 1 0 0 0 1 3 1 2 2 1 1 3 2 1 0 1 0 1 0 1 1 2 2 3 3 3 1 1 3 3 6 6 5 5 6 7 7 7 6 6 5 6 6 5 5 5 7 7 7 7 6 5
1 2 1 3 1 2 1 1 1 1 2 1 2 2 2 1 1 1 1 1 1 1 2 1 3 2 2 1 1 3 6 5 6 6 4 6 5 5 7 6 5 6 6 6 7 7 6 6 7 8 8 8 8 7
2 1 0 1 0 1 2 1 2 2 1 2 3 2 0 1 1 2 1 0 1 1 2 1 3 3 2 2 1 4 5 5 4 2 1 4 6 7 9 8 6 6 7 6 7 8 8 7 8 11 9 9 6 5
2 2 1 1 2 1 1 1 1 1 1 1 2 2 1 1 2 1 1 2 1 1 1 2 3 3 3 3 2 2 3 4 4 2 5 2 3 3 5 6 5 4 7 8 7 8 9 9 9 10 9 8 8 6
1 2 2 3 1 1 2 1 0 0 1 1 2 2 2 3 2 1 2 0 1 2 2 2 2 2 4 2 1 1 3 4 9 8 0 4 5 4 3 5 6 2 2 5 6 7 9 9 9 10 10 9 8 6
2 1 2 1 2 2 2 1 1 1 1 2 2 2 2 1 1 1 1 2 2 2 3 3 2 2 3 3 2 2 1 4 6 10 10 5 3 6 6 4 2 3 5 6 4 5 10 9 8 8 10 7 5 6
1 1 2 1 2 1 1 1 1 1 1 1 1 1 2 2 0 1 1 2 4 3 2 2 2 2 2 2 2 3 3 2 3 1 5 5 5 5 4 4 5 4 3 5 7 7 6 7 6 5 6 5 6 6
1 1 2 2 2 1 1 1 1 1 1 1 1 1 2 3 1 0 2 2 3 2 2 3 2 2 3 2 2 3 3 3 3 3 2 4 4 4 4 4 4 4 2 4 6 7 8 8 8 8 8 8 9 8
2 3 2 2 1 1 1 0 1 0 0 1 2 1 1 1 2 1 2 1 3 4 4 2 3 4 4 2 3 2 2 1 0 1 4 4 4 5 5 5 4 4 4 2 4 6 9 10 8 8 8 9 8 10
2 1 1 1 0 1 2 1 1 1 1 1 1 2 1 2 2 2 1 1 2 2 3 3 3 2 5 5 4 3 3 4 5 4 5 5 5 5 5 4 3 3 3 2 1 4 7 9 9 9 9 9 8 8
Wind_Direction
161 189 218 282 359 319 334 342 339 337 329 333 339 336 329 342 312 335 306 236 330 333 291 262 334 103 124 30 34 18 236 96 35 101 261 129 230 85 209 83 13 346 161 197 193 223 98 37 166 277 58 76 71 60
186 194 282 289 298 318 347 341 332 330 324 317 302 325 311 316 290 323 296 51 218 257 322 309 284 278 265 251 143 47 29 238 38 69 153 228 182 200 311 329 201 253 298 350 275 42 54 30 35 82 59 103 77 68
189 221 262 262 274 339 344 328 324 329 330 326 311 318 308 285 267 299 296 316 234 305 266 277 273 46 207 218 218 308 182 157 149 341 318 37 266 243 223 201 201 181 175 253 241 140 129 118 106 86 81 95 87 77
237 280 265 93 18 337 323 317 309 325 327 325 315 318 303 264 253 274 245 347 64 72 294 310 325 295 347 191 163 64 118 103 94 224 235 276 271 222 32 9 272 27 173 157 254 180 157 163 118 117 105 98 88 76
263 253 154 104 336 319 317 315 309 308 316 319 313 304 228 237 238 247 212 208 337 300 322 299 305 9 318 195 123 108 113 122 168 190 208 213 153 206 97 240 237 181 161 228 23 73 60 111 141 137 119 108 99 121
226 169 171 209 290 302 308 310 305 305 311 314 311 350 195 229 211 212 186 109 177 242 279 293 351 300 3 135 128 113 103 104 116 254 226 216 45 277 223 242 124 143 184 246 44 111 71 122 124 120 116 113 115 125
189 233 228 246 306 312 314 314 310 303 302 306 259 304 273 222 189 311 21 66 179 211 251 285 297 53 327 119 99 119 75 97 285 123 222 293 155 251 220 235 81 111 104 112 123 120 107 159 138 125 119 114 118 106
61 37 20 306 309 310 311 310 305 297 288 272 194 301 228 143 130 205 125 293 179 124 307 267 264 254 43 160 157 5 150 175 102 20 180 227 148 233 247 210 132 113 118 124 56 29 93 118 124 121 121 130 127 117
52 32 16 344 326 323 322 319 308 254 194 174 238 138 135 160 200 142 305 115 68 288 224 205 242 177 136 96 71 147 263 199 85 226 162 235 142 223 246 186 176 163 159 142 106 106 121 130 134 136 135 138 138 130
50 8 346 340 341 334 339 340 67 130 141 118 121 179 171 213 315 286 169 217 66 349 144 240 168 207 222 159 131 169 294 153 207 101 163 225 245 300 321 317 217 166 146 146 128 131 145 150 157 155 151 144 141 150
42 339 329 17 357 349 351 6 58 100 72 16 167 125 35 316 120 31 193 236 174 221 194 235 208 173 174 195 145 228 161 164 221 124 251 181 246 97 350 321 163 153 155 160 94 124 142 161 159 151 150 148 149 157
58 47 47 24 1 12 20 29 7 58 162 240 37 87 113 60 47 232 215 186 219 240 185 201 197 208 152 218 189 163 182 196 201 132 222 219 102 337 350 111 135 137 137 107 109 121 119 129 139 141 145 147 152 150
58 39 13 11 1 36 30 36 41 65 46 359 92 108 10 18 189 201 202 215 235 193 181 175 183 176 162 190 96 169 181 187 144 200 227 280 66 100 114 129 123 120 116 108 104 109 115 118 125 141 140 145 145 151
28 7 341 338 327 36 40 31 33 33 73 356 157 157 214 186 231 204 211 214 248 238 176 156 143 219 175 123 122 179 91 188 177 205 207 90 108 144 139 132 131 127 121 120 120 125 125 128 131 133 137 144 151 158
359 346 333 4 23 58 76 15 18 6 92 354 314 213 223 246 262 250 238 245 224 253 174 136 117 207 74 122 132 116 168 198 230 190 97 29 172 156 147 142 136 133 132 124 127 130 131 134 139 134 134 146 149 268
351 17 21 345 342 108 125 110 49 66 131 186 236 278 250 252 250 210 208 217 133 201 179 80 90 105 171 141 173 196 180 194 134 116 30 341 168 160 151 146 139 133 128 126 128 132 138 148 147 139 144 155 168 266
21 64 333 325 326 169 124 67 157 186 208 229 219 238 268 274 271 337 7 159 142 194 80 109 128 120 120 153 188 205 172 86 -0 1 345 204 175 163 154 148 147 143 136 135 134 142 140 137 140 150 162 167 233 277
81 327 334 354 341 161 95 62 331 215 220 233 245 288 291 279 233 125 122 292 200 123 177 88 118 124 151 172 174 144 259 325 315 344 355 172 168 162 162 157 155 149 143 143 144 143 147 158 165 168 173 168 223 57
264 294 314 10 68 75 138 165 204 257 229 253 225 303 293 359 349 48 52 60 81 213 134 103 114 129 127 110 102 105 54 6 1 5 353 155 170 164 160 156 150 147 147 148 155 161 160 172 164 167 176 188 137 67
285 276 231 185 28 185 221 198 193 249 293 29 78 341 73 67 359 320 334 25 37 47 53 57 80 95 129 113 127 85 60 359 334 43 91 114 149 166 171 167 161 144 140 138 141 142 146 153 165 175 190 183 160 111
347 48 151 167 204 220 272 281 199 315 321 64 107 250 103 174 215 324 40 349 57 52 109 175 185 157 124 94 109 134 309 344 15 359 14 145 157 173 158 135 138 150 154 163 160 152 180 179 166 180 182 193 194 120
321 314 213 178 254 192 267 231 271 337 308 52 124 210 194 101 81 48 0 37 59 49 145 167 172 173 176 185 173 207 334 326 309 279 207 164 168 178 181 171 165 167 173 170 162 164 173 172 172 179 193 197 229 218
303 236 237 214 245 170 150 197 179 145 4 115 175 157 141 164 29 296 76 4 321 39 345 300 275 203 194 125 114 76 25 343 307 286 259 236 236 197 178 175 173 158 170 172 172 162 163 156 171 184 191 208 216 230
246 258 223 299 188 271 239 206 227 181 192 208 149 109 89 72 106 49 230 242 355 326 296 264 215 156 135 148 136 65 339 298 278 271 251 231 212 199 190 179 168 181 186 162 170 168 161 171 161 187 197 205 209 226
67 350 25 327 214 301 326 122 146 145 105 117 124 114 106 180 140 224 269 295 328 333 340 332 170 174 165 121 165 315 336 310 270 258 235 216 206 175 178 167 178 189 179 166 168 175 168 162 178 186 195 201 207 211
75 336 60 335 15 304 359 81 53 63 63 76 65 84 134 112 206 253 247 198 195 254 318 294 197 172 145 101 40 351 336 318 284 261 251 198 197 196 178 157 169 194 195 206 165 171 171 173 184 186 194 207 224 210
45 23 253 225 283 282 129 78 83 36 90 116 134 136 150 178 238 229 252 215 213 146 324 278 190 204 157 144 134 28 9 334 40 352 287 252 220 211 180 173 196 181 168 182 171 173 175 176 184 189 196 200 206 201
311 307 345 356 318 20 43 57 72 170 120 135 141 186 202 203 227 155 219 154 187 132 96 72 70 132 155 176 140 60 49 339 6 352 314 77 67 71 136 197 220 176 177 183 179 167 172 175 182 185 192 199 188 190
288 246 259 283 181 210 236 218 206 170 105 181 215 212 235 207 293 217 186 206 171 180 172 157 107 106 103 93 77 75 68 69 37 338 5 24 79 58 32 38 69 179 178 158 146 156 172 170 176 182 186 193 191 174
296 197 280 285 283 282 76 332 49 100 62 43 348 287 248 234 281 325 220 195 206 216 182 154 144 182 168 194 149 111 58 55 116 286 321 345 11 350 2 23 29 50 122 144 148 130 103 134 125 141 155 168 190 187
297 235 241 225 265 69 30 95 83 72 58 79 29 274 270 308 324 25 288 270 235 208 169 164 161 189 185 191 186 171 141 104 101 97 9 322 335 343 358 11 22 38 82 151 155 165 170 172 168 170 178 183 193 202
223 229 233 245 198 117 198 147 118 56 106 33 333 288 302 305 293 12 18 294 219 214 212 231 218 198 205 174 151 119 84 114 81 340 311 305 314 330 339 349 360 7 36 116 176 183 189 186 184 183 181 188 195 201
266 211 214 232 224 176 155 176 218 245 157 312 277 219 231 297 336 43 93 344 308 297 259 237 222 175 183 184 191 201 226 258 271 254 251 260 274 292 300 295 306 330 340 3 72 183 194 201 196 194 188 184 186 193